Weather in Hafar-al-Batin

Saudi Arabia     28°26′02″N   45°58′19″E
В апреле 2022 года жителям России запретили посещать сайт meteo.paraplan.net по решению Генеральной прокуратуры. Аудитория сайта уменьшилась в 10 раз. Владельцы сайта не видят смысла в поддержке погодного сервера в таких условиях. Сайт будет закрыт в октябре.
temp.,
°C
wind,
m/s
gust,
m/s
humid.,
%
clouds,
%
prec.,
mm/h
press.,
hPa
HPBL,
m
25 september, sun
sun2500:00+27nnw613290 0.0 1010183
03:00+25nw511320 0.0 1009147
06:00+24nw614350 0.0 1010194
09:00+31nnw1015220 0.0 1011930
12:00+36nnw1213150 0.0 10081730
15:00+37n1112140 0.0 10072362
18:00+32nnw813200 0.0 1009203
21:00+28nnw714280 0.0 1010236
26 september, mon
mon2600:00+26nnw714330 0.0 1010256
03:00+24nnw613370 0.0 1010194
06:00+23nnw613380 0.0 1011197
09:00+30nnw913190 0.0 1012813
12:00+35nnw1011130 0.0 10101450
15:00+36nnw9960 0.0 10091679
18:00+30nnw5582 0.0 101027
21:00+26nw4491 0.0 101219
27 september, tue
tue2700:00+24nw4480 0.0 101122
03:00+23nw4480 0.0 101016
06:00+23nw4490 0.0 101118
09:00+31nw5770 0.0 1012442
12:00+36nnw6780 0.0 10101868
15:00+37nw6680 0.0 10082946
18:00+31n33110 0.0 100911
21:00+28ne33120 0.0 101011
28 september, wed
wed2800:00+25se22140 0.0 100911
03:00+25wsw34140 0.0 100911
06:00+24w44170 0.0 101023
09:00+31nw57120 0.0 1010445
12:00+36nnw7860 0.0 10082591
15:00+36nnw7750 0.0 10072935
18:00+30nnw4580 0.0 100819
21:00+26n4490 0.0 100921
29 september, thu
thu2900:00+23nnw33100 0.0 100811
03:00+22nnw33120 0.0 100811
06:00+23nw44130 0.0 100916
09:00+30nnw46110 0.0 1009534
12:00+34nnw6890 0.0 10082162
15:00+35nnw6690 0.0 10062778
18:00+29n44130 0.0 100614
21:00+26n33170 0.0 100811